Location: *
(40.7873°S, 98.7174°E)
Time: 10:06:52
(UTC+00:00)

Cosmos 1842 Rocket - Pass Details

Date: 24 May 2022
Orbit: 606 x 632 km, 82.5° (Epoch: 04 July)

Event Time Altitude Azimuth Distance (km) Brightness Sun altitude
Rises 10:34:14 0° 177° (S) 2,953 6.8 -4.9°
Reaches altitude 10° 10:36:47 10° 165° (SSE) 2,033 5.9 -5.4°
Maximum altitude 10:40:40 28° 105° (ESE) 1,193 4.5 -6.0°
Drops below altitude 10° 10:44:29 10° 46° (NE) 1,993 5.9 -6.7°
Sets 10:46:56 0° 34° (NNE) 2,885 6.9 -7.1°
